Content
SEND FEEDBACK

Daily
Averages
Monthly
Summary
Mexico

CANCUN, QUINTANA ROO


Home > North America > Mexico > Quintana Roo
Elevation: 9 meters     Latitude: 21 09N     Longitude: 086 49W

WEATHER
 
SELECT A DAY
Number of Records: 163,723;   Date Range: 1/1/95 - 7/28/14
 
SHARE

PRINT THIS DATA

[ ← Previous Day ]
WEATHER ALMANAC - 22 FEBRUARY, 2013
[ Next Day → ]
[ °F ]   °C
Weather ElementAverageHighLow
Temperature26.6 °C29 °C (9:44 am)23 °C (8:41 am)
Dewpoint21.9 °C22 °C (1:40 am)21 °C (7:45 am)
Humidity75.8 %94 % (8:41 am)62 % (12:44 pm)
Barometer1013.9 hPa1015.6 hPa (9:44 am)1012.5 hPa (4:42 am)
Wind Speed24.9 km/h38.9 km/h (3:41 pm)
Weather ElementAverage
Visibility11.3 km
Wind DirectionSSE (141.3 °)

Weather ElementTotal
Precipitation---
Cooling Degree Days7.7 (Base 18.3)
Growing Degree Days16 (Base 10)
Averaged from 23 records on 22 February, 2013
WEATHER CONDITIONS BREAKOUT
WIND DIRECTION BREAKOUT
WEATHER BY HOUR - 22 FEBRUARY, 2013
[ °F ]   °C
Local TimeTemperatureDewpointHumidityBarometerVisibilityWind DirectionWind SpeedGust SpeedPrecipitationEventsConditions
1:40 AM25 °C22 °C83 %1013.2 hPa11.3 kmSSE (150°)22.2 km/hScattered Clouds
2:42 AM25 °C22 °C83 %1012.9 hPa11.3 kmSE (140°)18.5 km/hScattered Clouds
3:40 AM25 °C22 °C83 %1012.9 hPa11.3 kmSE (130°)18.5 km/hScattered Clouds
4:42 AM25 °C22 °C83 %1012.5 hPa11.3 kmSE (130°)14.8 km/hScattered Clouds
5:41 AM25 °C22 °C83 %1012.9 hPa11.3 kmSE (140°)20.4 km/hScattered Clouds
6:40 AM26 °C22 °C78 %1013.9 hPa11.3 kmSE (140°)20.4 km/hScattered Clouds
7:45 AM27 °C21 °C70 %1014.6 hPa11.3 kmSE (140°)25.9 km/hScattered Clouds
8:41 AM23 °C22 °C94 %1015.2 hPa11.3 kmSE (140°)25.9 km/hScattered Clouds
9:44 AM29 °C22 °C66 %1015.6 hPa11.3 kmSE (140°)31.5 km/hMostly Cloudy
10:43 AM29 °C22 °C66 %1015.6 hPa11.3 kmSE (140°)29.6 km/hMostly Cloudy
11:40 AM28 °C22 °C70 %1015.2 hPa11.3 kmSE (130°)33.3 km/hMostly Cloudy
12:44 PM29 °C21 °C62 %1014.2 hPa11.3 kmSSE (150°)33.3 km/hMostly Cloudy
1:47 PM29 °C22 °C66 %1013.5 hPa11.3 kmSSE (150°)27.8 km/hMostly Cloudy
2:41 PM28 °C22 °C70 %1013.2 hPa11.3 kmSE (140°)35.2 km/hMostly Cloudy
3:41 PM28 °C22 °C70 %1012.5 hPa11.3 kmSSE (150°)38.9 km/hMostly Cloudy
4:42 PM27 °C22 °C74 %1012.9 hPa11.3 kmSSE (160°)29.6 km/hScattered Clouds
5:47 PM27 °C22 °C74 %1012.9 hPa11.3 kmSSE (150°)18.5 km/hScattered Clouds
6:44 PM26 °C22 °C78 %1013.5 hPa11.3 kmSE (140°)18.5 km/hScattered Clouds
7:45 PM26 °C22 °C78 %1014.2 hPa11.3 kmSE (140°)20.4 km/hPartly Cloudy
8:53 PM26 °C22 °C78 %1014.6 hPa11.3 kmSE (140°)18.5 km/hPartly Cloudy
9:48 PM26 °C22 °C78 %1014.6 hPa11.3 kmSSE (150°)20.4 km/hPartly Cloudy
10:47 PM26 °C22 °C78 %1014.2 hPa11.3 kmSE (130°)22.2 km/hClear
11:46 PM26 °C22 °C78 %1013.5 hPa11.3 kmSE (130°)27.8 km/hClear
Hourly data recorded from MMUN, located 0 kilometers away from Cancun, Quintana Roo







STORIES FROM OUR PARTNERS